Weather Roundup
Issued by NWS Springfield, MO

Home | Current Version | Previous Version | Text Only | Print | Product List | Glossary On
Versions: 1 2 3 4 5 6 7 8 9 10 11 12 13 14 15 16 17 18 19 20 21 22 23 24 25 26 27 28 29 30 31 32 33 34 35 36 37 38 39 40 41 42 43 44 45 46 47 48 49 50
000
NZUS99 KSGF 181307
HRRSGF

HOURLY WEATHER
NATIONAL WEATHER SERVICE SPRINGFIELD MO
800 AM CDT WED OCT 18 2017

......SGF CWA......

CITY           SKY/WX    TMP DP  RH WIND       PRES   REMARKS
SPRINGFIELD    CLEAR     48  41  76 S12       30.15R
JOPLIN         CLEAR     50  43  77 S12       30.13R
WEST PLAINS    CLEAR     48  40  73 S5        30.22R
ROLLA          CLEAR     50  40  68 S12       30.19R
OSAGE BEACH    CLEAR     47  41  80 S7        30.17R
BRANSON        CLEAR     45  39  81 SE7       30.18F

......SURROUNDING SGF CWA......

CITY           SKY/WX    TMP DP  RH WIND       PRES   REMARKS
CHANUTE        CLEAR     48  43  82 S8        30.09S
PARSONS        CLEAR     51  43  74 S7        30.10S
COFFEYVILLE    CLEAR     48  44  86 S5        30.09S
EMPORIA        CLEAR     50  42  74 S21       30.01F
GROVE OK       CLEAR     52  43  71 CALM      30.15S
ROGERS AR      CLEAR     48  42  80 SE8       30.16S
SILOAM SPRINGS CLEAR     46  40  79 CALM      30.16R
HARRISON AR    CLEAR     45  39  79 E5        30.18S
NEAR YELLVILLE CLEAR     39  37  92 CALM      30.21S

......KANSAS AND MISSOURI......

CITY           SKY/WX    TMP DP  RH WIND       PRES   REMARKS
KANSAS CTY INT PTCLDY    53  44  71 S13       30.05S
DOWNTOWN KC    CLEAR     54  45  71 S10       30.06S
COLUMBIA       CLEAR     46  42  86 S8        30.14F
SEDALIA        CLEAR     49  44  83 S9        30.13S
ST JOSEPH      CLEAR     50  46  86 S7        30.03S
ST LOUIS       PTCLDY    51  42  71 S7        30.20S
SPIRIT OF STL  PTCLDY    42  42 100 CALM      30.19S
KIRKSVILLE     CLEAR     47  44  90 S6        30.10R
WICHITA        PTCLDY    53  44  71 S15       30.00S
TOPEKA         CLEAR     54  45  71 S7        30.02S
OLATHE         CLEAR     50  43  77 S10       30.07S

......TENNESSEE......

CITY           SKY/WX    TMP DP  RH WIND       PRES   REMARKS
MEMPHIS        CLEAR     54  47  77 SE7       30.25R
NASHVILLE      MOSUNNY   45  42  89 S3        30.32R

......ARKANSAS.......

CITY           SKY/WX    TMP DP  RH WIND       PRES   REMARKS
FAYETTEVILLE   CLEAR     37  37 100 CALM      30.16S
FT SMITH       CLEAR     47  45  93 NE5       30.18S
LITTLE ROCK    PTCLDY    46  46 100 CALM      30.23R FOG

......OKLAHOMA.......

CITY           SKY/WX    TMP DP  RH WIND       PRES   REMARKS
TULSA          CLEAR     51  45  79 S9        30.11R
PONCA CITY     CLEAR     57  42  57 S10G22    30.03F
MCALESTER      MOCLDY    53  44  71 S6        30.16R
OKLAHOMA CITY  PTCLDY    49  43  80 S9        30.07F

......IOWA............

CITY           SKY/WX    TMP DP  RH WIND       PRES   REMARKS
DES MOINES     PTCLDY    53  45  74 S12       29.98F
QUAD CITIES    CLEAR     51  40  65 S9        30.08S

......ILLINOIS........

CITY           SKY/WX    TMP DP  RH WIND       PRES   REMARKS
QUINCY         CLEAR     50  41  71 S9        30.13R
CHICAGO        CLEAR     50  42  74 S8        30.15S




USA.gov is the U.S. government's official web portal to all federal, state and local government web resources and services.